Hourly Data Report for May 03, 2012

All times are specified in Local Standard Time (LST). Add 1 hour to adjust for Daylight Saving Time where and when it is observed.

DEER LAKE A
NEWFOUNDLAND

49°12'33.000" N
57°23'40.000" W
21.90 m
8401502
71809
YDF

Download Data

Hourly Data (May 2012)
Hourly Data Report for May 3, 2012
Temp Definition
°C
Dew Point Temp Definition
°C
Rel Hum Definition
%
Wind Dir Definition
10's deg

Wind Spd Definition
km/h
Visibility Definition
km
Stn Press Definition
kPa
Hmdx Definition


Wind Chill Definition


Weather Definition


TIME
00:30
01:30 Legend Double Dagger 3.2 -2.3 67   0 10.0 101.66     LegendNANA
02:30 Legend Double Dagger 2.9 -1.5 73   0 10.0 101.64     Cloudy
03:30 Legend Double Dagger 3.5 -0.3 76   0 10.0 101.58     LegendNANA
04:30 Legend Double Dagger 3.6 0.1 78 8 4 10.0 101.58     LegendNANA
05:30 Legend Double Dagger 4.3 1.3 81 4 5 10.0 101.59     Cloudy
06:30 Legend Double Dagger 4.0 0.9 80   0 10.0 101.58     LegendNANA
07:30 Legend Double Dagger 5.3 3.3 87 2 6 10.0 101.57     Rain Showers
08:30 Legend Double Dagger 4.3 2.5 88 21 9 10.0 101.55     Rain Showers
09:30 Legend Double Dagger 4.9 3.7 92 21 4 10.0 101.53     Rain Showers
10:30 Legend Double Dagger 6.5 3.8 83 6 26 10.0 101.53     Rain Showers
11:30 Legend Double Dagger 7.4 2.3 70 LegendMM LegendMM 10.0 101.51     Cloudy
12:30 Legend Double Dagger 6.7 2.6 75 3 22 10.0 101.48     LegendNANA
13:30 Legend Double Dagger 6.9 2.8 75 4 24 10.0 101.45     LegendNANA
14:30 Legend Double Dagger 7.9 2.8 70 4 17 10.0 101.44     Cloudy
15:30 Legend Double Dagger 6.5 2.2 74 6 29 10.0 101.44     LegendNANA
16:30 Legend Double Dagger 6.9 2.6 74 5 23 10.0 101.45     LegendNANA
17:30 Legend Double Dagger 5.7 1.8 76 3 24 10.0 101.52     Cloudy
18:30 Legend Double Dagger 5.0 1.5 78 4 26 10.0 101.57     LegendNANA
19:30 Legend Double Dagger 3.6 1.0 83 5 28 10.0 101.65     LegendNANA
20:30 Legend Double Dagger 2.9 1.0 87 3 22 10.0 101.69     Cloudy
21:30 Legend Double Dagger 2.3 0.4 87 5 19 10.0 101.76     LegendNANA
22:30 Legend Double Dagger 1.9 0.0 87 5 13 10.0 101.80     LegendNANA
23:30 Legend Double Dagger 1.7 -0.2 87 4 18 10.0 101.80     Cloudy

Notes on Data Quality.

Legend

  • E = Estimated
  • M = Missing
  • NA = Not Available
  • ‡ = Partner data that is not subject to review by the National Climate Archives
Date modified: